This demonstration page uses our WeatherBlox Daily Observations layout. Learn more.

Left ArrowRight Arrow

Hourly Observations for October 15, 2021

Temp ( °F °C ) Dew Point ( °F °C ) Humidity (%) Winds ( mph kmh ) Pressure ( in mb ) Visibility ( mi km ) Precip ( " mm )
12:53 am 00:53 Clear 68 20 65 18.3 90 90 N N/A 29.90 1013 10 16 N/A
1:53 am 01:53 Clear 68 20 66 18.9 93 93 ESE 3 6 29.89 1012 10 16 N/A
2:53 am 02:53 Clear 65 18.3 64 17.8 97 97 N N/A 29.90 1012 7 11 N/A
3:53 am 03:53 Mostly Clear 67 19.4 66 18.9 97 97 N N/A 29.89 1012 9 14 N/A
4:53 am 04:53 Clear 67 19.4 65 18.3 93 93 N N/A 29.88 1012 9 14 N/A
5:53 am 05:53 Partly Cloudy 67 19.4 65 18.3 93 93 N N/A 29.87 1012 8 13 N/A
6:53 am 06:53 Partly Cloudy 67 19.4 65 18.3 93 93 N N/A 29.87 1012 9 14 N/A
7:53 am 07:53 Mostly Sunny 66 18.9 65 18.3 96 96 E 3 6 29.87 1012 8 13 N/A
8:53 am 08:53 Sunny 69 20.6 66 18.9 90 90 N N/A 29.87 1012 10 16 N/A
9:53 am 09:53 Mostly Cloudy 73 22.8 66 18.9 79 79 N N/A 29.88 1012 10 16 N/A
10:53 am 10:53 Cloudy 74 23.3 66 18.9 76 76 N N/A 29.87 1011 10 16 N/A
11:04 am 11:04 Cloudy 74 23.3 66 18.9 76 76 VRB 5 7 29.86 1011 10 16 N/A
11:22 am 11:22 Cloudy 73 22.8 66 18.9 79 79 undefined N/A 29.87 1011 10 16 N/A
11:39 am 11:39 Cloudy 73 22.8 66 18.9 79 79 VRB 3 6 29.87 1011 10 16 N/A
11:48 am 11:48 Cloudy 72 22 64 18 78 78 SSW 7 11 29.87 1012 10 16 N/A
11:53 am 11:53 Cloudy with Light Rain 72 22.2 65 18.3 79 79 VRB 5 7 29.87 1012 8 13 0.00 0.00
12:03 pm 12:03 Cloudy with Light Rain 71 21.7 67 19.4 87 87 VRB 5 7 29.86 1011 8 13 0.00 0.00
12:53 pm 12:53 Cloudy 71 21.7 66 18.9 84 84 VRB 5 7 29.87 1012 10 16 0.00 0.00
1:04 pm 13:04 Cloudy 71 21.7 66 18.9 84 84 VRB 7 11 29.86 1011 10 16 N/A
1:41 pm 13:41 Cloudy 71 21.7 66 18.9 84 84 VRB 6 9 29.85 1011 10 16 N/A
1:53 pm 13:53 Cloudy 72 22.2 67 19.4 84 84 SSW 9 15 29.85 1011 10 16 N/A
2:39 pm 14:39 Cloudy 72 22.2 67 19.4 84 84 SSW 5 7 29.84 1011 9 14 N/A
2:53 pm 14:53 Cloudy 72 22.2 67 19.4 84 84 VRB 3 6 29.84 1010 9 14 N/A
3:24 pm 15:24 Mostly Cloudy 74 23.3 67 19.4 79 79 VRB 5 7 29.81 1009 10 16 N/A
3:53 pm 15:53 Mostly Cloudy 73 22.8 67 19.4 81 81 VRB 5 7 29.81 1010 10 16 N/A
4:13 pm 16:13 Cloudy 73 22.8 67 19.4 81 81 VRB 7 11 29.81 1009 10 16 N/A
4:53 pm 16:53 Cloudy 73 22.8 67 19.4 81 81 VRB 3 6 29.81 1010 10 16 N/A
5:33 pm 17:33 Partly Cloudy 73 22.8 66 18.9 79 79 VRB 3 6 29.80 1009 10 16 N/A
5:53 pm 17:53 Mostly Cloudy 72 22.2 66 18.9 82 82 VRB 7 11 29.80 1009 10 16 N/A
6:53 pm 18:53 Mostly Sunny 70 21.1 66 18.9 87 87 SSW 6 9 29.80 1009 10 16 0.00 0.00
7:46 pm 19:46 Mostly Cloudy 69 20.6 66 18.9 90 90 WNW 3 6 29.80 1009 10 16 N/A
7:53 pm 19:53 Mostly Cloudy 69 20.6 66 18.9 90 90 N N/A 29.81 1010 10 16 N/A
8:38 pm 20:38 Mostly Cloudy 68 20 66 18.9 93 93 N N/A 29.81 1009 10 16 N/A
8:49 pm 20:49 Cloudy 68 20 66 19 94 94 N N/A 29.81 1009 10 16 N/A
8:53 pm 20:53 Cloudy 68 20 66 18.9 93 93 N N/A 29.81 1010 10 16 N/A
9:53 pm 21:53 Cloudy 69 20.6 64 17.8 84 84 NNW 9 15 29.80 1009 10 16 N/A
10:23 pm 22:23 Cloudy with Light Rain 67 19.4 63 17.2 87 87 N 5 7 29.77 1008 10 16 0.00 0.00
10:53 pm 22:53 Cloudy with Light Rain 66 18.9 63 17.2 90 90 N N/A 29.78 1008 9 14 0.01 0.25
11:17 pm 23:17 Cloudy with Strong Thunderstorms 65 18.3 63 17.2 93 93 NNE 7 11 29.76 1008 3 5 0.09 2.29
11:53 pm 23:53 Cloudy with Light Rain 63 17.2 61 16.1 93 93 N 12 19 29.79 1009 6 10 0.17 4.32

Powered by AerisWeather